Weather History for KNJM - March, 2013

Change the Weather History Date:

Monday, March 4, 2013

  Actual Average (KNKT) Record (KNKT)
Temperature  
Mean Temperature 38 °F -  
Max Temperature 48 °F 58 °F 80 °F (2004)
Min Temperature 28 °F 38 °F -45 °F (2005)
Degree Days  
Heating Degree Days 27    
Moisture  
Dew Point 18 °F    
Average Humidity 49    
Maximum Humidity 76    
Minimum Humidity 27    
Precipitation  
Precipitation 0.00 in - - ()
Sea Level Pressure  
Sea Level Pressure 30.06 in    
Wind  
Wind Speed 7 mph (NW)    
Max Wind Speed 15 mph    
Max Gust Speed 22 mph    
Visibility 10 miles    
Events      
Averages and records for this station are not official NWS values.
T = Trace of Precipitation, MM = Missing Value Source: NWS Daily Summary

Daily Weather History Graph

Daily Weather History Graph

Search for Another Location

Airport or City:

Trip Planner

Search our weather history database for the weather conditions in past years. The results will help you decide how hot, cold, wet, or windy it might be!

Date:

Astronomy

Mar. 04, 2013 Rise Set
Actual Time 6:33 AM EST 6:06 PM EST
Civil Twilight 6:07 AM EST 6:32 PM EST
Nautical Twilight 5:38 AM EST 7:01 PM EST
Astronomical Twilight 5:09 AM EST 7:30 PM EST
Moon 12:30 AM EST 10:56 AM EST
Length of Visible Light 12h 24m
Length of Day
11h 33m
Waning Gibbous, 52% of the Moon is Illuminated
Mar 4
Waning Gibbous
Mar 4
Last Quarter
Mar 11
New
Mar 19
First Quarter
Mar 27
Full

Hourly Weather History & Observations

Time (EST) Temp. Windchill Dew Point Humidity Pressure Visibility Wind Dir Wind Speed Gust Speed Precip Events Conditions
12:57 AM 34.0 °F 28.8 °F 19.9 °F 56% 29.98 in 10.0 mi NW 5.8 mph - N/A   Clear
1:57 AM 33.1 °F 26.9 °F 17.1 °F 52% 29.98 in 10.0 mi NW 6.9 mph - N/A   Clear
2:57 AM 32.0 °F 24.8 °F 17.1 °F 54% 29.98 in 10.0 mi NW 8.1 mph - N/A   Clear
3:57 AM 30.9 °F 23.5 °F 17.1 °F 57% 29.99 in 10.0 mi NW 8.1 mph - N/A   Clear
4:57 AM 30.0 °F 22.4 °F 16.0 °F 56% 30.01 in 10.0 mi NW 8.1 mph - N/A   Clear
5:57 AM 30.0 °F 23.2 °F 17.1 °F 59% 30.03 in 10.0 mi NW 6.9 mph - N/A   Clear
6:57 AM 28.9 °F 20.4 °F 16.0 °F 58% 30.06 in 10.0 mi NW 9.2 mph - N/A   Clear
7:57 AM 32.0 °F 23.6 °F 16.0 °F 52% 30.09 in 10.0 mi NW 10.4 mph - N/A   Clear
8:57 AM 36.0 °F 28.0 °F 15.1 °F 43% 30.10 in 10.0 mi NW 11.5 mph 18.4 mph N/A   Clear
9:57 AM 37.9 °F 29.6 °F 15.1 °F 39% 30.11 in 7.0 mi NW 13.8 mph 19.6 mph N/A   Clear
10:57 AM 39.0 °F 31.0 °F 14.0 °F 36% 30.10 in 10.0 mi NW 13.8 mph 20.7 mph N/A   Clear
11:57 AM 42.1 °F 36.6 °F 14.0 °F 32% 30.08 in 10.0 mi NW 9.2 mph - N/A   Clear
12:57 PM 44.1 °F 37.1 °F 14.0 °F 30% 30.06 in 10.0 mi WNW 15.0 mph 21.9 mph N/A   Clear
1:57 PM 46.0 °F 41.9 °F 14.0 °F 28% 30.04 in 10.0 mi NW 8.1 mph 17.3 mph N/A   Clear
2:57 PM 46.9 °F - 15.1 °F 28% 30.04 in 10.0 mi West 8.1 mph 18.4 mph N/A   Clear
3:57 PM 48.0 °F - 15.1 °F 27% 30.04 in 10.0 mi NW 8.1 mph - N/A   Clear
4:57 PM 48.0 °F - 15.1 °F 27% 30.04 in 10.0 mi WNW 6.9 mph - N/A   Clear
5:57 PM 45.0 °F 42.6 °F 17.1 °F 33% 30.06 in 10.0 mi WNW 4.6 mph - N/A   Clear
6:57 PM 37.0 °F - 23.0 °F 57% 30.09 in 10.0 mi Calm Calm - N/A   Clear
7:57 PM 34.0 °F - 21.9 °F 61% 30.09 in 10.0 mi Calm Calm - N/A   Clear
8:57 PM 32.0 °F - 21.9 °F 66% 30.11 in 10.0 mi Calm Calm - N/A   Clear
9:57 PM 32.0 °F - 23.0 °F 69% 30.13 in 10.0 mi Calm Calm - N/A   Clear
10:57 PM 30.9 °F 26.2 °F 24.1 °F 76% 30.12 in 10.0 mi WSW 4.6 mph - N/A   Clear
11:57 PM 32.0 °F - 23.0 °F 69% 30.12 in 10.0 mi Calm Calm - N/A   Clear